Weather in Arkhangel

Russia / Vladimir Oblast     55°27′03″N   41°32′53″E
temp.,
°C
wind,
m/s
gust,
m/s
humid.,
%
clouds,
%
prec.,
mm/h
press.,
hPa
HPBL,
m
19 january, wed
wed1900:00−13nnw3109668 0.0 1013201
03:00−15nw289867 0.0 1015123
06:00−16nw269969 0.0 101583
09:00−18nw2510083 0.0 101759
12:00−11nw239269 0.0 1016171
15:00−11wsw23945 0.0 1017111
18:00−16wsw229962 0.0 101730
21:00−15ssw389761 0.0 1016109
20 january, thu
thu2000:00−14ssw4119379 0.0 1015203
03:00−12ssw4138698 0.0 1014298
06:00−11s51484100 0.0 1013347
09:00−11ssw5158698 0.0 1012390
12:00−9s61690100 0.0 1011442
15:00−8s61691100 0.0 1010548
18:00−10s6169296 0.0 1010467
21:00−11s6179184 0.0 1009489
21 january, fri
fri2100:00−12s61888100 0.0 1009501
03:00−11s61692100 0.1 1009518
06:00−10s51594100 0.2 1008511
09:00−9sse61494100 0.8 1008496
12:00−8sse61694100 0.9 1007550
15:00−8se61694100 2.1 1006712
18:00−7se61494100 0.8 1005709
21:00−7se51394100 1.4 1005625
22 january, sat
sat2200:00−7se51395100 0.9 1005638
03:00−6sse51194100 1.5 1006437
06:00−9sse389799 0.1 1009210
09:00−11se31197100 0.1 1012277
12:00−8se3893100 0.0 1014339
15:00−7se3794100 0.1 1015364
18:00−11ese279884 0.1 1018118
21:00−15ese23100100 0.1 102041
23 january, sun
sun2300:00−16ese11100100 0.0 102219
03:00−17ene2110099 0.1 102423
06:00−16ene2110088 0.1 102527
09:00−19ne1110097 0.1 102721
12:00−11ne119592 0.0 1028116
15:00−10n119647 0.0 102931
18:00−18nne1110089 0.0 10329
21:00−19n22100100 0.0 103311